[[{"header":{"parameterUnit":"m.s-1","parameterCategory":1,"la1":30.2991,"la2":30.254,"lo1":-89.0895,"lo2":-89.0444,"dy":0.0017,"dx":0.0017,"nx":28,"ny":28,"refTime":"2023-04-23T21:00:00:Z","depth":0,"parameterNumber":2,"parameterNumberName":"U-component_of_WINDS"},"data":[0,0,0,0,0,0,0,0,0,0,0,0,0,0,0,0,0,0,0,0,0,0,0,0,0,0,0,0,0,0,0,0,0,0,0,0,0,0,0,0,0,0,0,0,0,0,0,0,0,0,0,0,0,0,0,0,0,0,-3.7348,-3.7348,0,-3.7335,-3.7334,-3.7334,-3.7216,-3.7213,-3.721,-3.7207,-3.7196,-3.7198,-3.7201,0,0,0,0,0,0,0,0,0,0,0,0,0,-3.7274,-3.7276,-3.7348,-3.7348,-3.7348,-3.7335,-3.7334,-3.7334,-3.7216,-3.7213,-3.7209,-3.7206,-3.7195,-3.7198,-3.7201,0,0,0,0,0,0,0,0,0,0,0,0,0,-3.7288,-3.7277,-3.7348,-3.7287,-3.7282,-3.7335,-3.7334,-3.7334,-3.7217,-3.7213,-3.7208,-3.7204,-3.7194,-3.7198,-3.7201,-3.7312,0,0,-3.7212,-3.7214,0,0,0,0,0,0,0,0,-3.7288,-3.7291,-3.7296,-3.7292,-3.7285,-3.7272,-3.7304,-3.7327,-3.7218,-3.7242,-3.7207,-3.7202,-3.7225,-3.7226,-3.7233,-3.7312,-3.7311,-3.7213,-3.7215,-3.7217,-3.7218,0,0,0,0,0,0,0,-3.7287,-3.7291,-3.7343,-3.7297,-3.729,-3.7261,-3.7258,-3.7308,-3.7258,-3.7239,-3.7231,-3.723,-3.7221,-3.723,-3.7232,-3.7311,-3.7213,-3.7216,-3.7218,-3.722,-3.7482,-3.7486,0,0,0,0,0,0,-3.7294,-3.7291,-3.7343,-3.7342,-3.7276,-3.7266,-3.7263,-3.7281,-3.7257,-3.725,-3.7234,-3.7225,-3.7226,-3.7228,-3.7231,-3.7361,-3.7217,-3.722,-3.7222,-3.7477,-3.7483,-3.7488,0,0,0,0,0,0,-3.7293,-3.73,-3.7344,-3.7314,-3.7318,-3.7272,-3.7293,-3.7283,-3.7292,-3.7254,-3.7244,-3.7252,-3.7222,-3.7226,-3.7293,-3.7359,-3.7222,-3.7225,-3.7471,-3.7479,-3.7485,-3.7621,0,0,0,0,0,0,-3.7291,-3.73,-3.7341,-3.7316,-3.732,-3.7406,-3.7297,-3.7286,-3.7298,-3.7286,-3.7268,-3.7261,-3.7219,-3.7288,-3.7297,-3.7361,-3.7228,-3.7465,-3.7475,-3.7483,-3.761,-3.7632,-3.765,0,0,0,0,0,-3.7289,-3.738,-3.7344,-3.7351,-3.737,-3.741,-3.7412,-3.7361,-3.7304,-3.7345,-3.7321,-3.7261,-3.735,-3.7296,-3.7305,-3.7371,-3.7461,-3.7472,-3.7482,-3.7601,-3.7627,-3.7649,0,0,0,0,0,0,-3.7415,-3.7376,-3.7335,-3.7421,-3.742,-3.739,-3.7441,-3.739,-3.7406,-3.7394,-3.7331,-3.7328,-3.7405,-3.7394,-3.7336,-3.7478,-3.7395,-3.7408,-3.7483,-3.7507,-3.7527,-3.7529,-3.7231,0,0,0,0,0,-3.7453,-3.7488,-3.7451,-3.7531,-3.7532,-3.7487,-3.7502,-3.7463,-3.7459,-3.7459,-3.7439,-3.7438,-3.7466,-3.7485,-3.7509,-3.7607,-3.7603,-3.7657,-3.7677,-3.7694,-3.7706,-3.7759,-3.7784,-3.7523,-3.7523,-3.7523,0,0,-3.7532,-3.7514,-3.754,-3.7556,-3.755,-3.7588,-3.7487,-3.7532,-3.756,-3.7465,-3.7528,-3.7514,-3.7509,-3.7593,-3.7629,-3.7586,-3.7777,-3.7707,-3.7721,-3.7724,-3.7773,-3.7797,-3.7819,-3.753,-3.7529,-3.7528,0,0,-3.7695,-3.7685,-3.775,-3.7746,-3.7739,-3.7708,-3.7724,-3.7701,-3.7688,-3.7749,-3.768,-3.7712,-3.7761,-3.7761,-3.7767,-3.793,-3.7877,-3.7939,-3.8044,-3.8096,-3.8117,-3.8135,-3.8195,-3.8217,-3.7952,-3.7952,-3.7952,0,-3.7794,-3.7848,-3.779,-3.784,-3.7849,-3.7764,-3.7831,-3.783,-3.7831,-3.784,-3.7792,-3.7851,-3.7842,-3.7925,-3.7965,-3.7972,-3.799,-3.7942,-3.8118,-3.8136,-3.8152,-3.8208,-3.8231,-3.796,-3.7959,-3.7958,-3.7957,0,-3.7971,-3.801,-3.8064,-3.8066,-3.8081,-3.8139,-3.8091,-3.8113,-3.8073,-3.8048,-3.8112,-3.8098,-3.8117,-3.8133,-3.8094,-3.8212,-3.8186,-3.8129,-3.8045,-3.8185,-3.8237,-3.8258,-3.7971,-3.7968,-3.7966,-3.7964,0,0,-3.8215,-3.8184,-3.8205,-3.8206,-3.8191,-3.822,-3.8274,-3.8292,-3.8314,-3.8317,-3.8362,-3.8405,-3.8352,-3.8359,-3.8319,-3.8365,-3.8497,-3.8302,-3.8301,-3.8341,-3.8627,-3.8672,-3.8698,-3.8461,-3.8465,-3.8468,-3.8628,0,-3.8373,-3.8464,-3.8413,-3.8511,-3.8547,-3.8467,-3.8514,-3.8511,-3.8489,-3.8516,-3.8491,-3.8524,-3.8451,-3.8455,-3.8496,-3.8473,-3.8554,-3.846,-3.8504,-3.8506,-3.851,-3.8724,-3.8771,-3.8924,-3.8648,-3.8652,-3.8654,0,-3.8571,-3.8582,-3.8684,-3.8662,-3.8675,-3.8719,-3.8732,-3.8759,-3.8753,-3.8734,-3.8742,-3.8692,-3.8744,-3.866,-3.8732,-3.8669,-3.8684,-3.8675,-3.868,-3.8683,-3.859,-3.8736,-3.8971,-3.8995,-3.8685,-3.8683,-3.868,0,-3.8741,-3.8781,-3.8847,-3.885,-3.8826,-3.8859,-3.8851,-3.8841,-3.8856,-3.8867,-3.8876,-3.8893,-3.8904,-3.8919,-3.8875,-3.8817,-3.8954,-3.8865,-3.8941,-3.8943,-3.8975,-3.8974,-3.9218,-3.8982,-3.8982,-3.8981,-3.8981,0,-3.8924,-3.899,-3.8923,-3.8965,-3.9036,-3.8977,-3.905,-3.9033,-3.9025,-3.9063,-3.8994,-3.903,-3.8969,-3.8999,-3.8965,-3.9031,-3.9036,-3.9023,-3.9014,-3.903,-3.9032,-3.9041,-3.903,-3.8987,-3.8986,-3.8985,-3.8984,0,-3.9127,-3.9085,-3.9152,-3.9124,-3.9119,-3.9173,-3.9149,-3.9187,-3.9159,-3.9207,-3.9215,-3.9172,-3.9205,-3.9162,-3.919,-3.9167,-3.9258,-3.9232,-3.926,-3.9254,-3.9333,-3.9327,-3.9592,-3.9624,-3.9366,-3.9368,-3.937,0,-3.9248,-3.9296,-3.9274,-3.9293,-3.9289,-3.9321,-3.9335,-3.9279,-3.9297,-3.9295,-3.9333,-3.9359,-3.9378,-3.9434,-3.9406,-3.9428,-3.9403,-3.9494,-3.9406,-3.9421,-3.9406,-3.9405,-3.941,-3.9513,-3.9516,-3.9519,-3.9521,0,-3.9467,-3.9444,-3.9466,-3.9483,-3.9501,-3.9511,-3.9516,-3.9536,-3.9477,-3.9501,-3.9533,-3.9547,-3.9576,-3.9604,-3.9618,-3.961,-3.9557,-3.9548,-3.9567,-3.9586,-3.9602,-3.9596,-3.9312,-3.9543,-3.9541,-3.9539,-3.9538,-3.9537,-3.9634,-3.9674,-3.9664,-3.9692,-3.9689,-3.9696,-3.973,-3.9706,-3.9731,-3.975,-3.9715,-3.9757,-3.9751,-3.9764,-3.9763,-3.9795,-3.9755,-3.9782,-3.979,-3.9798,-3.9811,-3.9595,-3.9797,-3.9796,-3.9795,-3.9795,-3.9794,0,-3.9851,-3.9841,-3.9867,-3.9876,-3.9898,-3.9844,-3.9846,-3.9869,-3.9906,-3.9904,-3.9923,-3.9961,-3.9988,-3.9962,-3.9984,-4.0015,-3.9991,-4.0022,-4.0021,-4.002,-3.9844,-3.9826,-4.0041,-4.0041,-4.0041,-4.0041,-4.0041,-4.0041,-3.9967,-4.0032,-4.0008,-4.0072,-4.006,-4.01,-4.0106,-4.0112,-4.0111,-4.0155,-4.0177,-4.0159,-4.0148,-4.0169,-4.0191,-4.0183,-4.0195,-4.0236,-4.022,-4.0056,-4.0032,-4.0009,-3.9992,-4.0239,-4.0239,-4.0393,-4.0395,-4.0396]},{"header":{"parameterUnit":"m.s-1","parameterCategory":1,"la1":30.2991,"la2":30.254,"lo1":-89.0895,"lo2":-89.0444,"dy":0.0017,"dx":0.0017,"nx":28,"ny":28,"refTime":"2023-04-23T21:00:00:Z","depth":0,"parameterNumber":3,"parameterNumberName":"V-component_of_WINDS"},"data":[0,0,0,0,0,0,0,0,0,0,0,0,0,0,0,0,0,0,0,0,0,0,0,0,0,0,0,0,0,0,0,0,0,0,0,0,0,0,0,0,0,0,0,0,0,0,0,0,0,0,0,0,0,0,0,0,0,0,-2.0442,-2.0442,0,-2.0447,-2.0447,-2.0447,-2.0425,-2.0424,-2.0424,-2.0423,-2.0427,-2.0428,-2.0429,0,0,0,0,0,0,0,0,0,0,0,0,0,-2.0413,-2.0414,-2.0442,-2.0442,-2.0442,-2.0447,-2.0447,-2.0447,-2.0425,-2.0424,-2.0423,-2.0423,-2.0427,-2.0428,-2.0429,0,0,0,0,0,0,0,0,0,0,0,0,0,-2.0423,-2.0414,-2.0442,-2.0432,-2.0431,-2.0447,-2.0447,-2.0447,-2.0425,-2.0424,-2.0423,-2.0422,-2.0427,-2.0428,-2.0429,-2.0455,0,0,-2.0432,-2.0433,0,0,0,0,0,0,0,0,-2.0422,-2.0424,-2.0433,-2.0433,-2.0432,-2.0434,-2.0438,-2.045,-2.0425,-2.0427,-2.0423,-2.0422,-2.043,-2.0431,-2.0434,-2.0455,-2.0455,-2.0432,-2.0433,-2.0433,-2.0434,0,0,0,0,0,0,0,-2.0421,-2.0423,-2.0444,-2.0434,-2.0433,-2.0427,-2.0427,-2.044,-2.0434,-2.0427,-2.0426,-2.0426,-2.043,-2.0433,-2.0434,-2.0455,-2.0432,-2.0433,-2.0434,-2.0434,-2.0497,-2.0498,0,0,0,0,0,0,-2.0422,-2.0423,-2.0444,-2.0444,-2.0424,-2.0428,-2.0428,-2.0434,-2.0434,-2.0433,-2.0427,-2.0425,-2.0432,-2.0433,-2.0434,-2.0464,-2.0433,-2.0434,-2.0435,-2.0496,-2.0497,-2.0498,0,0,0,0,0,0,-2.0422,-2.0424,-2.0444,-2.0433,-2.0435,-2.043,-2.0437,-2.0435,-2.0438,-2.0434,-2.0433,-2.0432,-2.0431,-2.0433,-2.045,-2.0464,-2.0435,-2.0436,-2.0495,-2.0496,-2.0498,-2.0525,0,0,0,0,0,0,-2.0421,-2.0424,-2.0435,-2.0434,-2.0436,-2.046,-2.0438,-2.0436,-2.044,-2.0438,-2.0438,-2.0437,-2.043,-2.0448,-2.0451,-2.0465,-2.0437,-2.0493,-2.0495,-2.0497,-2.0522,-2.0527,-2.0531,0,0,0,0,0,-2.042,-2.0442,-2.0435,-2.0438,-2.0449,-2.0461,-2.0462,-2.0454,-2.0442,-2.0452,-2.0449,-2.0437,-2.0462,-2.045,-2.0453,-2.0467,-2.0492,-2.0495,-2.0497,-2.052,-2.0526,-2.053,0,0,0,0,0,0,-2.0445,-2.0442,-2.0434,-2.0457,-2.0459,-2.0457,-2.0469,-2.046,-2.0466,-2.0463,-2.0453,-2.0453,-2.0472,-2.0471,-2.0458,-2.0492,-2.0475,-2.0478,-2.0492,-2.0497,-2.0501,-2.0501,-2.0437,0,0,0,0,0,-2.0453,-2.0463,-2.046,-2.048,-2.0482,-2.0475,-2.048,-2.0474,-2.0476,-2.0477,-2.0475,-2.0477,-2.0485,-2.0491,-2.0498,-2.0522,-2.0521,-2.0533,-2.0537,-2.0541,-2.0544,-2.0555,-2.056,-2.0506,-2.0506,-2.0506,0,0,-2.047,-2.0469,-2.0477,-2.0485,-2.0486,-2.0497,-2.0476,-2.0489,-2.0496,-2.0479,-2.0495,-2.0493,-2.0495,-2.0515,-2.0524,-2.0516,-2.0558,-2.0544,-2.0546,-2.0547,-2.0558,-2.0563,-2.0568,-2.0507,-2.0507,-2.0507,0,0,-2.0506,-2.0507,-2.0523,-2.0525,-2.0527,-2.0522,-2.0526,-2.0525,-2.0524,-2.054,-2.0526,-2.0535,-2.0549,-2.0551,-2.0554,-2.0589,-2.0579,-2.0592,-2.0614,-2.0625,-2.063,-2.0633,-2.0646,-2.065,-2.0595,-2.0595,-2.0595,0,-2.0527,-2.0542,-2.0533,-2.0546,-2.055,-2.0534,-2.055,-2.0552,-2.0556,-2.0559,-2.0549,-2.0566,-2.0567,-2.0587,-2.0595,-2.0598,-2.0602,-2.0592,-2.063,-2.0633,-2.0637,-2.0649,-2.0653,-2.0596,-2.0596,-2.0596,-2.0596,0,-2.0568,-2.0579,-2.0592,-2.0596,-2.0601,-2.0616,-2.0608,-2.0614,-2.0607,-2.0603,-2.0619,-2.0619,-2.0625,-2.0629,-2.0623,-2.0648,-2.0643,-2.0632,-2.0614,-2.0644,-2.0655,-2.0659,-2.0599,-2.0598,-2.0598,-2.0597,0,0,-2.062,-2.0618,-2.0623,-2.0625,-2.0625,-2.0633,-2.0647,-2.0653,-2.0659,-2.0662,-2.0673,-2.0685,-2.0674,-2.0677,-2.067,-2.068,-2.0708,-2.0668,-2.0667,-2.0675,-2.0736,-2.0745,-2.075,-2.0701,-2.0702,-2.0702,-2.0736,0,-2.0656,-2.0679,-2.067,-2.0694,-2.0703,-2.0688,-2.07,-2.0701,-2.0698,-2.0705,-2.0701,-2.071,-2.0695,-2.0697,-2.0706,-2.0703,-2.072,-2.07,-2.0711,-2.0711,-2.0711,-2.0756,-2.0765,-2.0797,-2.074,-2.0741,-2.0741,0,-2.07,-2.0705,-2.0729,-2.0727,-2.0731,-2.0742,-2.0746,-2.0754,-2.0754,-2.0751,-2.0754,-2.0745,-2.0757,-2.074,-2.0757,-2.0743,-2.0747,-2.0746,-2.0747,-2.0748,-2.0728,-2.0758,-2.0807,-2.0811,-2.0748,-2.0747,-2.0747,0,-2.0736,-2.0748,-2.0764,-2.0766,-2.0764,-2.0772,-2.0771,-2.0771,-2.0775,-2.0779,-2.0782,-2.0787,-2.079,-2.0795,-2.0787,-2.0775,-2.0805,-2.0786,-2.0802,-2.0802,-2.0809,-2.0809,-2.0859,-2.0812,-2.0812,-2.0812,-2.0811,0,-2.0776,-2.0792,-2.078,-2.079,-2.0807,-2.0796,-2.0813,-2.0811,-2.0811,-2.0819,-2.0806,-2.0815,-2.0804,-2.0811,-2.0805,-2.082,-2.0821,-2.0819,-2.0817,-2.082,-2.082,-2.0823,-2.082,-2.0813,-2.0812,-2.0812,-2.0812,0,-2.0819,-2.0812,-2.0828,-2.0825,-2.0824,-2.0837,-2.0834,-2.0842,-2.0838,-2.0849,-2.0851,-2.0844,-2.0852,-2.0844,-2.0852,-2.0848,-2.0868,-2.0863,-2.0867,-2.0866,-2.0882,-2.0881,-2.0936,-2.0942,-2.089,-2.0891,-2.0891,0,-2.0845,-2.0857,-2.0854,-2.0859,-2.0859,-2.0868,-2.0872,-2.0861,-2.0866,-2.0867,-2.0876,-2.0883,-2.0888,-2.0901,-2.0896,-2.0902,-2.0897,-2.0916,-2.0898,-2.09,-2.0897,-2.0897,-2.0897,-2.092,-2.092,-2.0921,-2.0921,0,-2.0892,-2.0888,-2.0894,-2.0899,-2.0904,-2.0907,-2.091,-2.0915,-2.0904,-2.091,-2.0918,-2.0921,-2.0929,-2.0936,-2.094,-2.0939,-2.0928,-2.0927,-2.0931,-2.0934,-2.0936,-2.0935,-2.0877,-2.0926,-2.0925,-2.0925,-2.0925,-2.0925,-2.0927,-2.0937,-2.0936,-2.0943,-2.0944,-2.0946,-2.0954,-2.095,-2.0957,-2.0962,-2.0955,-2.0965,-2.0965,-2.0969,-2.0969,-2.0976,-2.0968,-2.0974,-2.0976,-2.0977,-2.0979,-2.0935,-2.0977,-2.0977,-2.0977,-2.0977,-2.0977,0,-2.0974,-2.0972,-2.0979,-2.0982,-2.0988,-2.0977,-2.0979,-2.0984,-2.0993,-2.0993,-2.0998,-2.1007,-2.1013,-2.1009,-2.1014,-2.1021,-2.1016,-2.1022,-2.1022,-2.1022,-2.0986,-2.0982,-2.1026,-2.1026,-2.1026,-2.1026,-2.1026,-2.1026,-2.0998,-2.1013,-2.1009,-2.1023,-2.1022,-2.1031,-2.1033,-2.1035,-2.1035,-2.1045,-2.105,-2.1047,-2.1046,-2.1051,-2.1056,-2.1055,-2.1057,-2.1065,-2.1062,-2.1029,-2.1024,-2.102,-2.1016,-2.1066,-2.1066,-2.1097,-2.1097,-2.1097]}]]